Spokane Felts, WA

3:38 PM PDT on September 25, 2017 (GMT -0700)
Felts

Weather History for KSFF - January, 2013

Change the Weather History Date:

Thursday, January 24, 2013

  Actual Average Record
Temperature  
Mean Temperature 31 °F 32 °F  
Max Temperature 35 °F 38 °F 44 °F (2002)
Min Temperature 26 °F 27 °F 7 °F (2008)
Degree Days  
Heating Degree Days 34 33  
Month to date heating degree days 926 817  
Since 1 July heating degree days 3094 3486  
Cooling Degree Days 0 0  
Month to date cooling degree days 0 0  
Year to date cooling degree days 0 0  
Moisture  
Dew Point 25 °F    
Average Humidity 78    
Maximum Humidity 85    
Minimum Humidity 70    
Precipitation  
Precipitation 0.01 in 0.06 in 0.49 in (2011)
Month to date precipitation 1.07 1.56  
Year to date precipitation 1.07 1.56  
Sea Level Pressure  
Sea Level Pressure 30.22 in    
Wind  
Wind Speed 1 mph (SW)    
Max Wind Speed 10 mph    
Max Gust Speed 14 mph    
Visibility 6 miles    
Events Rain    
T = Trace of Precipitation, MM = Missing Value Source: NWS Daily Summary

Daily Weather History Graph

Daily Weather History Graph

Search for Another Location

Airport or City:

Trip Planner

Search our weather history database for the weather conditions in past years. The results will help you decide how hot, cold, wet, or windy it might be!

Date:

Astronomy

Jan. 24, 2013 Rise Set
Actual Time 7:25 AM PST 4:38 PM PST
Civil Twilight 6:51 AM PST 5:12 PM PST
Nautical Twilight 6:13 AM PST 5:49 PM PST
Astronomical Twilight 5:37 AM PST 6:26 PM PST
Moon 2:42 PM PST (1/24) 5:28 AM PST (1/24)
Length of Visible Light 10h 21m
Length of Day
9h 13m
Waxing Gibbous, 95% of the Moon is Illuminated
Jan 24
Waxing Gibbous
Jan 26
Full
Feb 3
Last Quarter
Feb 9
New
Feb 17
First Quarter

Hourly Weather History & Observations

Time (PST) Temp. Windchill Dew Point Humidity Pressure Visibility Wind Dir Wind Speed Gust Speed Precip Events Conditions
12:53 AM 27.0 °F 18.7 °F 21.0 °F 78% 30.15 in 10.0 mi SSW 8.1 mph - N/A   Overcast
1:53 AM 27.0 °F 23.0 °F 21.0 °F 78% 30.18 in 10.0 mi SW 3.5 mph - N/A   Overcast
2:53 AM 27.0 °F 20.5 °F 21.0 °F 78% 30.20 in 8.0 mi SSW 5.8 mph - N/A   Overcast
3:53 AM 27.0 °F - 21.0 °F 78% 30.22 in 7.0 mi Calm Calm - N/A   Overcast
4:53 AM 27.0 °F 21.6 °F 21.0 °F 78% 30.23 in 7.0 mi SW 4.6 mph - N/A   Overcast
5:43 AM 26.6 °F 20.0 °F 21.2 °F 80% 30.19 in 6.0 mi South 5.8 mph - N/A   Haze
5:53 AM 27.0 °F 23.0 °F 21.9 °F 81% 30.25 in 6.0 mi West 3.5 mph - N/A   Haze
6:53 AM 27.0 °F - 21.9 °F 81% 30.27 in 6.0 mi Calm Calm - N/A   Haze
7:53 AM 28.0 °F - 23.0 °F 81% 30.27 in 4.0 mi Calm Calm - N/A   Haze
8:53 AM 28.0 °F - 23.0 °F 81% 30.29 in 4.0 mi Calm Calm - N/A   Haze
9:53 AM 28.9 °F - 24.1 °F 82% 30.30 in 4.0 mi Calm Calm - N/A   Haze
10:53 AM 30.0 °F - 25.0 °F 82% 30.30 in 4.0 mi Calm Calm - N/A   Haze
11:53 AM 32.0 °F - 26.1 °F 79% 30.29 in 5.0 mi Calm Calm - N/A   Haze
12:00 PM 32.0 °F - 26.6 °F 80% 30.22 in 4.0 mi Calm Calm - N/A   Haze
12:07 PM 32.0 °F - 26.6 °F 80% 30.22 in 4.0 mi Calm Calm - N/A   Haze
12:53 PM 33.1 °F - 27.0 °F 78% 30.27 in 7.0 mi Calm Calm - N/A   Overcast
1:53 PM 35.1 °F - 27.0 °F 72% 30.25 in 7.0 mi Calm Calm - N/A   Scattered Clouds
2:53 PM 34.0 °F 31.0 °F 27.0 °F 75% 30.25 in 6.0 mi North 3.5 mph - N/A   Haze
3:02 PM 33.8 °F 29.6 °F 26.6 °F 75% 30.19 in 6.0 mi NNE 4.6 mph - N/A   Haze
3:53 PM 33.1 °F - 26.1 °F 75% 30.26 in 6.0 mi Calm Calm - N/A   Haze
4:53 PM 32.0 °F - 26.1 °F 79% 30.25 in 8.0 mi Calm Calm - N/A   Clear
5:53 PM 30.9 °F - 25.0 °F 79% 30.24 in 7.0 mi Calm Calm - N/A   Scattered Clouds
6:53 PM 30.9 °F - 26.1 °F 82% 30.22 in 7.0 mi Calm Calm - N/A   Scattered Clouds
7:00 PM 30.2 °F - 26.6 °F 86% 30.16 in 7.0 mi Calm Calm - N/A   Mostly Cloudy
7:53 PM 32.0 °F - 27.0 °F 82% 30.23 in 6.0 mi Calm Calm - N/A   Haze
8:00 PM 32.0 °F - 26.6 °F 80% 30.17 in 7.0 mi Calm Calm - N/A   Overcast
8:53 PM 30.9 °F 27.5 °F 26.1 °F 82% 30.21 in 8.0 mi ENE 3.5 mph - N/A   Overcast
9:43 PM 32.0 °F - 26.6 °F 80% 30.15 in 7.0 mi Calm Calm - 0.00 in   Overcast
9:53 PM 32.0 °F - 27.0 °F 82% 30.21 in 5.0 mi Calm Calm - 0.00 in   Overcast
10:53 PM 33.1 °F - 28.9 °F 85% 30.21 in 5.0 mi Calm Calm - 0.00 in   Overcast
11:13 PM 33.8 °F - 28.4 °F 81% 30.14 in 5.0 mi Calm Calm - 0.01 in Rain Light Freezing Rain
11:28 PM 33.8 °F - 28.4 °F 81% 30.14 in 5.0 mi Calm Calm - 0.01 in   Overcast
11:45 PM 33.8 °F - 28.4 °F 81% 30.14 in 5.0 mi Calm Calm - 0.01 in   Overcast
11:53 PM 33.1 °F - 28.9 °F 85% 30.19 in 5.0 mi Calm Calm - 0.01 in Rain Light Rain